Shreveport, LA

7:29 PM CST on December 05, 2016 (GMT -0600)
Shreveport Downtown

Weather History for KDTN - February, 2012

Change the Weather History Date:

Wednesday, February 22, 2012

  Actual Average (KSHV) Record (KSHV)
Temperature  
Mean Temperature 68 °F 52 °F  
Max Temperature 79 °F 63 °F 86 °F (1980)
Min Temperature 57 °F 41 °F 12 °F (1978)
Degree Days  
Heating Degree Days 0 13  
Month to date heating degree days 336  
Since 1 July heating degree days 1808  
Cooling Degree Days 3 0  
Month to date cooling degree days 0  
Year to date cooling degree days 4  
Growing Degree Days 18 (Base 50)    
Moisture  
Dew Point 53 °F    
Average Humidity 68    
Maximum Humidity 94    
Minimum Humidity 27    
Precipitation  
Precipitation 0.00 in 0.17 in 2.16 in (1874)
Month to date precipitation 3.78  
Year to date precipitation 7.98  
Snow  
Snow 0.00 in - - ()
Month to date snowfall  
Since 1 July snowfall  
Snow Depth -    
Sea Level Pressure  
Sea Level Pressure 29.76 in    
Wind  
Wind Speed 13 mph (SW)    
Max Wind Speed 23 mph    
Max Gust Speed 30 mph    
Visibility 10 miles    
Events      
T = Trace of Precipitation, MM = Missing Value Source: NWS Daily Summary

Daily Weather History Graph

Daily Weather History Graph

Search for Another Location

Airport or City:

Trip Planner

Search our weather history database for the weather conditions in past years. The results will help you decide how hot, cold, wet, or windy it might be!

Date:

Astronomy

Feb. 22, 2012 Rise Set
Actual Time 6:51 AM CST 6:06 PM CST
Civil Twilight 6:26 AM CST 6:31 PM CST
Nautical Twilight 5:57 AM CST 6:59 PM CST
Astronomical Twilight 5:29 AM CST 7:28 PM CST
Moon 6:55 AM CST (2/22) 7:06 PM CST (2/22)
Length of Visible Light 12h 05m
Length of Day
11h 15m
New Moon, 1% of the Moon is Illuminated
Feb 22
New Moon
Feb 29
First Quarter
Mar 8
Full
Mar 14
Last Quarter
Mar 22
New

Hourly Weather History & Observations

Time (CST) Temp. Dew Point Humidity Pressure Visibility Wind Dir Wind Speed Gust Speed Precip Events Conditions
12:53 AM 59.0 °F 52.0 °F 78% 29.94 in 10.0 mi SSW 13.8 mph - N/A   Clear
1:53 AM 57.9 °F 53.1 °F 84% 29.93 in 10.0 mi South 15.0 mph - N/A   Clear
2:53 AM 57.0 °F 54.0 °F 89% 29.90 in 10.0 mi South 16.1 mph - N/A   Clear
3:53 AM 57.0 °F 55.0 °F 93% 29.88 in 10.0 mi South 11.5 mph - N/A   Clear
4:23 AM 57.2 °F 55.4 °F 94% 29.88 in 10.0 mi SSW 13.8 mph 20.7 mph N/A   Mostly Cloudy
4:53 AM 57.9 °F 55.9 °F 93% 29.88 in 10.0 mi SSW 15.0 mph - N/A   Overcast
5:23 AM 59.0 °F 55.4 °F 88% 29.88 in 10.0 mi SW 15.0 mph - N/A   Overcast
5:53 AM 60.1 °F 57.0 °F 90% 29.87 in 10.0 mi SW 12.7 mph - N/A   Overcast
6:53 AM 61.0 °F 57.9 °F 90% 29.86 in 10.0 mi SW 13.8 mph - N/A   Overcast
7:38 AM 60.8 °F 57.2 °F 88% 29.85 in 10.0 mi SSW 10.4 mph - N/A   Mostly Cloudy
7:53 AM 62.1 °F 57.9 °F 86% 29.85 in 10.0 mi SSW 10.4 mph - N/A   Overcast
8:53 AM 64.0 °F 59.0 °F 84% 29.84 in 10.0 mi SSW 12.7 mph 24.2 mph N/A   Overcast
9:53 AM 66.0 °F 59.0 °F 78% 29.81 in 10.0 mi SSW 18.4 mph 26.5 mph N/A   Overcast
10:53 AM 70.0 °F 59.0 °F 68% 29.79 in 10.0 mi WSW 16.1 mph 29.9 mph N/A   Scattered Clouds
11:53 AM 72.0 °F 57.0 °F 59% 29.76 in 10.0 mi WSW 17.3 mph 25.3 mph N/A   Partly Cloudy
12:53 PM 75.0 °F 57.0 °F 53% 29.70 in 10.0 mi SW 23.0 mph 28.8 mph N/A   Clear
1:53 PM 75.9 °F 55.0 °F 48% 29.66 in 10.0 mi SSW 19.6 mph 27.6 mph N/A   Clear
2:53 PM 78.1 °F 53.1 °F 42% 29.64 in 10.0 mi WSW 15.0 mph 25.3 mph N/A   Clear
3:53 PM 79.0 °F 50.0 °F 36% 29.62 in 10.0 mi WSW 15.0 mph 23.0 mph N/A   Clear
4:53 PM 79.0 °F 42.1 °F 27% 29.61 in 10.0 mi WSW 15.0 mph 23.0 mph N/A   Clear
5:53 PM 75.9 °F 43.0 °F 31% 29.62 in 10.0 mi West 11.5 mph 20.7 mph N/A   Clear
6:53 PM 72.0 °F 44.1 °F 37% 29.63 in 10.0 mi WSW 4.6 mph - N/A   Clear
7:53 PM 68.0 °F 44.1 °F 42% 29.65 in 10.0 mi Calm Calm - N/A   Clear
8:53 PM 60.1 °F 45.0 °F 57% 29.63 in 10.0 mi South 5.8 mph - N/A   Clear
9:53 PM 62.1 °F 45.0 °F 53% 29.63 in 10.0 mi Calm Calm - N/A   Clear
10:53 PM 57.0 °F 46.0 °F 67% 29.64 in 10.0 mi Calm Calm - N/A   Clear
11:53 PM 62.1 °F 52.0 °F 70% 29.62 in 10.0 mi South 8.1 mph - N/A   Clear